Location: Misciano
(43.5000°N, 11.9500°E)
Time: 21:49:54
(UTC+00:00)

SPOT 1/Viking Rocket - Pass Details

Date: 13 August 2020
Orbit: 776 x 795 km, 98.5° (Epoch: 21 September)

Event Time Altitude Azimuth Distance (km) Brightness Sun altitude
Exits shadow 19:45:04 22° 119° (ESE) 1,680 4.6 -14.6°
Maximum altitude 19:47:47 37° 68° (ENE) 1,222 4.3 -15.0°
Drops below altitude 10° 19:52:33 10° 2° (N) 2,374 6.5 -15.7°
Sets 19:55:02 0° 355° (N) 3,307 7.5 -16.1°
